UPLA180 UACC-UACC

Flight info

Callsign UPLA180
Flight time 0h 23m
Altitude 3000
Route RA/A030
Aircraft DA42/L-S/N

Departure

Time 2026-05-04 18:15
Airport Nursultan Nazarbayev International Airport (UACC)

Arrival

Time 2026-05-04 18:38
Airport Nursultan Nazarbayev International Airport (UACC)
Time Latitude Longitude Altitude Speed Heading
2026-05-04 18:06 51.02258 71.45465 1163 ft 0 kts 225°
2026-05-04 18:08 51.02228 71.45447 1164 ft 8 kts 140°
2026-05-04 18:09 51.02126 71.45613 1163 ft 11 kts 134°
2026-05-04 18:09 51.02025 71.45602 1164 ft 9 kts 135°
2026-05-04 18:10 51.01988 71.45663 1164 ft 4 kts 127°
2026-05-04 18:10 51.01985 71.45733 1164 ft 9 kts 60°
2026-05-04 18:10 51.02044 71.45828 1164 ft 15 kts 43°
2026-05-04 18:10 51.02128 71.45957 1163 ft 18 kts 44°
2026-05-04 18:11 51.02210 71.46086 1163 ft 13 kts 45°
2026-05-04 18:11 51.02282 71.46199 1163 ft 15 kts 42°
2026-05-04 18:11 51.02334 71.46276 1163 ft 11 kts 42°
2026-05-04 18:11 51.02401 71.46383 1164 ft 16 kts 44°
2026-05-04 18:12 51.02488 71.46518 1164 ft 19 kts 44°
2026-05-04 18:12 51.02574 71.46653 1164 ft 16 kts 45°
2026-05-04 18:12 51.02623 71.46754 1164 ft 3 kts 112°
2026-05-04 18:12 51.02596 71.46801 1164 ft 8 kts 134°
2026-05-04 18:13 51.02548 71.46878 1164 ft 11 kts 135°
2026-05-04 18:13 51.02497 71.46954 1165 ft 11 kts 160°
2026-05-04 18:13 51.02462 71.46941 1165 ft 0 kts 223°
2026-05-04 18:14 51.02396 71.46840 1164 ft 45 kts 225°
2026-05-04 18:14 51.02045 71.46288 1208 ft 87 kts 222°
2026-05-04 18:14 51.01588 71.45552 1460 ft 97 kts 224°
2026-05-04 18:15 51.00707 71.43990 2229 ft 91 kts 221°
2026-05-04 18:15 50.99814 71.42616 2922 ft 90 kts 217°
2026-05-04 18:15 50.99316 71.41848 3010 ft 113 kts 218°
2026-05-04 18:16 50.98716 71.40951 3008 ft 122 kts 218°
2026-05-04 18:16 50.98087 71.40029 3009 ft 125 kts 218°
2026-05-04 18:16 50.97442 71.39086 3009 ft 127 kts 218°
2026-05-04 18:17 50.96541 71.36735 3003 ft 143 kts 270°
2026-05-04 18:17 50.97032 71.35327 3005 ft 155 kts 315°
2026-05-04 18:17 50.99061 71.35334 3008 ft 156 kts 45°
2026-05-04 18:18 50.99620 71.36709 3114 ft 140 kts 79°
2026-05-04 18:18 50.99797 71.38173 3184 ft 137 kts 90°
2026-05-04 18:18 50.99920 71.39688 3212 ft 139 kts 90°
2026-05-04 18:18 51.00049 71.41119 3464 ft 126 kts 89°
2026-05-04 18:19 51.00528 71.43869 3781 ft 123 kts 79°
2026-05-04 18:19 51.00799 71.45096 4051 ft 117 kts 79°
2026-05-04 18:19 51.01068 71.46326 4230 ft 119 kts 79°
2026-05-04 18:20 51.01333 71.47533 4514 ft 110 kts 78°
2026-05-04 18:20 51.01580 71.48652 4844 ft 107 kts 79°
2026-05-04 18:20 51.01813 71.49771 5115 ft 107 kts 79°
2026-05-04 18:20 51.02037 71.50905 5393 ft 108 kts 80°
2026-05-04 18:21 51.02258 71.52054 5675 ft 110 kts 79°
2026-05-04 18:21 51.02483 71.53217 5948 ft 111 kts 78°
2026-05-04 18:21 51.02723 71.54491 6009 ft 131 kts 78°
2026-05-04 18:21 51.02985 71.55960 6011 ft 145 kts 78°
2026-05-04 18:22 51.03266 71.57556 6007 ft 154 kts 78°
2026-05-04 18:22 51.03557 71.59208 6006 ft 158 kts 78°
2026-05-04 18:22 51.03852 71.60890 6008 ft 158 kts 77°
2026-05-04 18:22 51.04185 71.62543 6007 ft 157 kts 73°
2026-05-04 18:23 51.04557 71.64164 6006 ft 156 kts 73°
2026-05-04 18:23 51.04932 71.65777 6007 ft 156 kts 73°
2026-05-04 18:23 51.05302 71.67388 6008 ft 155 kts 73°
2026-05-04 18:23 51.05662 71.69010 5905 ft 156 kts 74°
2026-05-04 18:24 51.06018 71.70611 5652 ft 153 kts 74°
2026-05-04 18:24 51.06371 71.72186 5400 ft 150 kts 75°
2026-05-04 18:24 51.06721 71.73736 5149 ft 148 kts 76°
2026-05-04 18:24 51.07059 71.75264 4866 ft 147 kts 76°
2026-05-04 18:25 51.07401 71.76785 4358 ft 149 kts 76°
2026-05-04 18:25 51.07754 71.78356 3956 ft 153 kts 77°
2026-05-04 18:25 51.08098 71.79927 3804 ft 147 kts 76°
2026-05-04 18:25 51.08432 71.81453 3803 ft 146 kts 77°
2026-05-04 18:26 51.08769 71.82967 3802 ft 146 kts 76°
2026-05-04 18:26 51.09305 71.84350 3801 ft 152 kts 49°
2026-05-04 18:26 51.10159 71.85359 3805 ft 155 kts 34°
2026-05-04 18:26 51.11144 71.86073 3806 ft 158 kts 18°
2026-05-04 18:27 51.12223 71.86364 3801 ft 158 kts 355°
2026-05-04 18:27 51.13234 71.85797 3806 ft 154 kts 327°
2026-05-04 18:27 51.14172 71.84967 3806 ft 155 kts 326°
2026-05-04 18:27 51.15107 71.84126 3804 ft 155 kts 326°
2026-05-04 18:28 51.16029 71.83259 3804 ft 154 kts 323°
2026-05-04 18:28 51.16895 71.82276 3804 ft 153 kts 316°
2026-05-04 18:28 51.17698 71.81184 3803 ft 152 kts 311°
2026-05-04 18:28 51.18464 71.80037 3804 ft 151 kts 310°
2026-05-04 18:29 51.19222 71.78876 3805 ft 152 kts 310°
2026-05-04 18:29 51.19980 71.77708 3806 ft 152 kts 310°
2026-05-04 18:29 51.20607 71.76407 3799 ft 144 kts 281°
2026-05-04 18:29 51.20538 71.74939 3799 ft 130 kts 235°
2026-05-04 18:30 51.19135 71.73364 3805 ft 126 kts 216°
2026-05-04 18:30 51.18478 71.72436 3802 ft 126 kts 218°
2026-05-04 18:30 51.17842 71.71475 3802 ft 126 kts 219°
2026-05-04 18:31 51.17217 71.70502 3801 ft 126 kts 220°
2026-05-04 18:31 51.16599 71.69524 3801 ft 125 kts 220°
2026-05-04 18:31 51.15982 71.68542 3802 ft 126 kts 221°
2026-05-04 18:31 51.15366 71.67558 3803 ft 126 kts 220°
2026-05-04 18:32 51.14747 71.66571 3808 ft 126 kts 221°
2026-05-04 18:32 51.14128 71.65583 3808 ft 126 kts 221°
2026-05-04 18:32 51.13509 71.64595 3807 ft 126 kts 220°
2026-05-04 18:32 51.12889 71.63605 3807 ft 126 kts 220°
2026-05-04 18:33 51.12263 71.62605 3658 ft 130 kts 220°
2026-05-04 18:33 51.11628 71.61589 3414 ft 128 kts 220°
2026-05-04 18:33 51.10996 71.60581 3051 ft 132 kts 220°
2026-05-04 18:33 51.10382 71.59599 2946 ft 119 kts 219°
2026-05-04 18:34 51.09811 71.58689 2817 ft 113 kts 219°
2026-05-04 18:34 51.09264 71.57822 2703 ft 108 kts 219°
2026-05-04 18:34 51.08775 71.57039 2598 ft 90 kts 218°
2026-05-04 18:34 51.08341 71.56352 2503 ft 86 kts 218°
2026-05-04 18:35 51.07926 71.55696 2415 ft 85 kts 218°
2026-05-04 18:35 51.07503 71.55024 2293 ft 87 kts 217°
2026-05-04 18:35 51.07075 71.54341 2189 ft 87 kts 217°
2026-05-04 18:35 51.06654 71.53673 2107 ft 85 kts 217°
2026-05-04 18:36 51.06223 71.52988 1962 ft 90 kts 219°
2026-05-04 18:36 51.05778 71.52280 1833 ft 92 kts 220°
2026-05-04 18:36 51.05322 71.51555 1704 ft 94 kts 221°
2026-05-04 18:36 51.04856 71.50812 1584 ft 95 kts 222°
2026-05-04 18:37 51.04425 71.50116 1499 ft 82 kts 223°
2026-05-04 18:37 51.04061 71.49455 1385 ft 77 kts 221°
2026-05-04 18:37 51.03687 71.48851 1264 ft 76 kts 219°
2026-05-04 18:37 51.03312 71.48271 1172 ft 74 kts 222°
2026-05-04 18:38 51.03025 71.47825 1164 ft 45 kts 224°
2026-05-04 18:38 51.02829 71.47517 1163 ft 39 kts 225°
2026-05-04 18:38 51.02636 71.47213 1163 ft 32 kts 223°
2026-05-04 18:38 51.02512 71.47017 1164 ft 19 kts 231°
2026-05-04 18:39 51.02537 71.46895 1164 ft 16 kts 315°
2026-05-04 18:39 51.02577 71.46832 1164 ft 0 kts 315°
2026-05-04 18:40 51.02577 71.46831 1164 ft 0 kts 315°
2026-05-04 18:40 51.02587 71.46816 1164 ft 5 kts 315°
2026-05-04 18:40 51.02608 71.46706 1164 ft 17 kts 230°
2026-05-04 18:40 51.02505 71.46540 1164 ft 23 kts 225°
2026-05-04 18:41 51.02407 71.46393 1164 ft 20 kts 225°
2026-05-04 18:41 51.02298 71.46219 1164 ft 24 kts 223°
2026-05-04 18:41 51.02171 71.46025 1164 ft 26 kts 225°
2026-05-04 18:41 51.02056 71.45844 1164 ft 24 kts 224°
2026-05-04 18:42 51.01984 71.45682 1164 ft 17 kts 289°
2026-05-04 18:42 51.02071 71.45580 1164 ft 8 kts 48°
2026-05-04 18:42 51.02137 71.45599 1164 ft 13 kts 333°
2026-05-04 18:42 51.02175 71.45637 1164 ft 0 kts 45°